Terminal Aerodrome Forecast
Issued by NWS Amarillo, TX

Home | Current Version | Previous Version | Text Only | Print | Product List | Glossary On
Versions: 1 2 3 4 5 6 7 8 9 10 11 12 13 14 15 16 17 18 19 20
000
FTUS44 KAMA 282031 AAB
TAFGUY
TAF AMD
KGUY 282031Z 2821/2918 07017G26KT P6SM -SHRA BKN050 OVC070
      TEMPO 2821/2824 4SM -SHRA BR BKN005
     FM290000 03015G25KT 4SM -SHRA OVC007
     FM290900 02025G35KT 2SM -SHRA OVC003
     FM291500 02030G40KT 1SM -SHRA OVC004=

USA.gov is the U.S. government's official web portal to all federal, state and local government web resources and services.